Lincoln, NE

3:14 AM CDT on September 22, 2017 (GMT -0500)
Lincoln Municipal

Weather History for KLNK - February, 2012

Change the Weather History Date:

Tuesday, February 28, 2012

  Actual Average Record
Temperature  
Mean Temperature 46 °F 34 °F  
Max Temperature 56 °F 45 °F 78 °F (1972)
Min Temperature 36 °F 22 °F -12 °F (1962)
Degree Days  
Heating Degree Days 19 31  
Month to date heating degree days 960 1006  
Since 1 July heating degree days 4363 4703  
Cooling Degree Days 0 0  
Month to date cooling degree days 0 0  
Year to date cooling degree days 0 0  
Moisture  
Dew Point 42 °F    
Average Humidity 73    
Maximum Humidity 93    
Minimum Humidity 52    
Precipitation  
Precipitation 0.32 in 0.03 in 1.71 in (1951)
Month to date precipitation 2.10 0.77  
Year to date precipitation 2.26 1.41  
Snow  
Snow 0.00 in 0.20 in - ()
Month to date snowfall 12.3 5.6  
Since 1 July snowfall 18.8 19.7  
Snow Depth 0.00 in    
Sea Level Pressure  
Sea Level Pressure 29.73 in    
Wind  
Wind Speed 14 mph (SSE)    
Max Wind Speed 37 mph    
Max Gust Speed 49 mph    
Visibility 7 miles    
Events Rain , Thunderstorm    
T = Trace of Precipitation, MM = Missing Value Source: NWS Daily Summary

Daily Weather History Graph

Daily Weather History Graph

Search for Another Location

Airport or City:

Trip Planner

Search our weather history database for the weather conditions in past years. The results will help you decide how hot, cold, wet, or windy it might be!

Date:

Astronomy

Feb. 28, 2012 Rise Set
Actual Time 7:03 AM CST 6:16 PM CST
Civil Twilight 6:35 AM CST 6:44 PM CST
Nautical Twilight 6:04 AM CST 7:15 PM CST
Astronomical Twilight 5:32 AM CST 7:47 PM CST
Moon 10:08 AM CST (2/28) 12:13 AM CST (2/28)
Length of Visible Light 12h 08m
Length of Day
11h 13m
Waxing Crescent, 38% of the Moon is Illuminated
Feb 28
Waxing Crescent
Feb 29
First Quarter
Mar 8
Full
Mar 14
Last Quarter
Mar 22
New

Hourly Weather History & Observations

Time (CST) Temp. Windchill Dew Point Humidity Pressure Visibility Wind Dir Wind Speed Gust Speed Precip Events Conditions
12:54 AM 37.0 °F 29.8 °F 21.0 °F 52% 30.27 in 10.0 mi SSE 10.4 mph - N/A   Overcast
1:54 AM 37.9 °F 31.5 °F 21.0 °F 51% 30.24 in 10.0 mi SSE 9.2 mph - N/A   Overcast
2:54 AM 37.9 °F 32.1 °F 21.0 °F 51% 30.20 in 10.0 mi SSE 8.1 mph - N/A   Overcast
3:54 AM 37.9 °F 30.9 °F 21.0 °F 51% 30.16 in 10.0 mi SE 10.4 mph - N/A   Overcast
4:54 AM 37.9 °F 30.9 °F 21.9 °F 53% 30.13 in 10.0 mi SE 10.4 mph - 0.00 in   Overcast
5:54 AM 37.0 °F 31.0 °F 25.0 °F 62% 30.10 in 10.0 mi SE 8.1 mph - 0.00 in   Overcast
6:54 AM 36.0 °F 28.5 °F 30.0 °F 79% 30.08 in 10.0 mi SE 10.4 mph - 0.03 in   Overcast
7:54 AM 36.0 °F 28.5 °F 32.0 °F 86% 30.05 in 5.0 mi SSE 10.4 mph - 0.04 in Rain Rain
8:44 AM 37.4 °F 29.8 °F 33.8 °F 87% 30.00 in 9.0 mi SSE 11.5 mph - 0.02 in   Overcast
8:54 AM 37.9 °F 31.5 °F 34.0 °F 86% 30.03 in 9.0 mi SSE 9.2 mph - 0.02 in   Overcast
9:22 AM 37.4 °F 29.3 °F 35.6 °F 93% 29.98 in 4.0 mi SE 12.7 mph - 0.01 in Rain Light Rain
9:54 AM 39.9 °F 32.5 °F 36.0 °F 86% 29.98 in 8.0 mi SE 12.7 mph - 0.01 in   Overcast
10:54 AM 45.0 °F 38.9 °F 39.9 °F 82% 29.90 in 9.0 mi SSE 12.7 mph 26.5 mph 0.00 in   Mostly Cloudy
11:54 AM 46.0 °F 40.6 °F 41.0 °F 83% 29.86 in 5.0 mi SE 11.5 mph - 0.00 in Rain Light Rain
12:54 PM 46.9 °F - 44.1 °F 90% 29.78 in 6.0 mi SE 11.5 mph - 0.04 in Rain , Thunderstorm Light Thunderstorms and Rain
1:16 PM 48.2 °F - 44.6 °F 87% 29.74 in 4.0 mi SSE 12.7 mph 19.6 mph 0.04 in Rain Light Rain
2:54 PM 51.1 °F - 46.9 °F 86% 29.66 in 7.0 mi SSE 16.1 mph 21.9 mph N/A   Overcast
3:14 PM 51.8 °F - 48.2 °F 88% 29.63 in 7.0 mi SSE 18.4 mph - N/A   Overcast
3:36 PM 51.8 °F - 48.2 °F 88% 29.61 in 2.5 mi SSE 17.3 mph 26.5 mph N/A   Overcast
3:51 PM 51.8 °F - 51.8 °F 100% 29.61 in 1.8 mi SSE 17.3 mph - 0.00 in Rain Light Rain
3:54 PM 52.0 °F - 51.1 °F 97% 29.62 in 1.8 mi SSE 18.4 mph - 0.00 in Rain Light Rain
4:10 PM 53.6 °F - 51.8 °F 94% 29.59 in 2.0 mi SSE 20.7 mph - 0.00 in Rain Light Rain
4:44 PM 53.6 °F - 51.8 °F 94% 29.55 in 3.0 mi SSE 19.6 mph - 0.01 in   Overcast
4:54 PM 53.1 °F - 52.0 °F 96% 29.56 in 3.0 mi SSE 20.7 mph 26.5 mph 0.01 in   Overcast
5:54 PM 54.0 °F - 52.0 °F 93% 29.51 in 6.0 mi SSE 19.6 mph 26.5 mph 0.01 in   Overcast
6:28 PM 53.6 °F - 51.8 °F 94% 29.47 in 9.0 mi SSE 21.9 mph - N/A   Overcast
6:54 PM 55.0 °F - 53.1 °F 93% 29.44 in 7.0 mi South 25.3 mph 34.5 mph 0.00 in Rain Light Rain
7:13 PM 55.4 °F - 53.6 °F 94% 29.42 in 7.0 mi SSE 26.5 mph 44.9 mph 0.00 in Rain , Thunderstorm Light Thunderstorms and Rain
7:54 PM 55.0 °F - 53.1 °F 93% 29.37 in 10.0 mi SE 17.3 mph 32.2 mph 0.03 in   Mostly Cloudy
8:24 PM 55.4 °F - 53.6 °F 94% 29.38 in 7.0 mi South 18.4 mph - 0.00 in Rain , Thunderstorm Light Thunderstorms and Rain
8:54 PM 55.0 °F - 53.1 °F 93% 29.33 in 6.0 mi SE 16.1 mph - 0.08 in Rain , Thunderstorm Light Thunderstorms and Rain
9:17 PM 55.4 °F - 51.8 °F 88% 29.34 in 10.0 mi SW 23.0 mph 31.1 mph 0.01 in Rain Light Rain
9:29 PM 55.4 °F - 51.8 °F 88% 29.36 in 10.0 mi West 16.1 mph 26.5 mph 0.01 in   Overcast
9:54 PM 54.0 °F - 44.1 °F 69% 29.37 in 10.0 mi WSW 9.2 mph - 0.01 in   Overcast
10:54 PM 48.0 °F - 39.0 °F 71% 29.39 in 10.0 mi West 21.9 mph 33.4 mph N/A   Clear
11:54 PM 42.1 °F 31.0 °F 34.0 °F 73% 29.44 in 10.0 mi West 32.2 mph 49.5 mph N/A   Clear